Weather History for Roosevelt Roads, PR

Change the Weather History Date:

Wednesday, July 31, 2013

  Actual Average Record
Temperature  
Mean Temperature 84 °F -  
Max Temperature 88 °F 85 °F 90 °F (2002)
Min Temperature 80 °F 73 °F 46 °F (1997)
Cooling Degree Days 19    
Growing Degree Days 34 (Base 50)    
Moisture  
Dew Point 76 °F    
Average Humidity 76    
Maximum Humidity 87    
Minimum Humidity 67    
Precipitation  
Precipitation 0.00 in - - ()
Sea Level Pressure  
Sea Level Pressure 30.05 in    
Wind  
Wind Speed 6 mph (ENE)    
Max Wind Speed 14 mph    
Max Gust Speed 17 mph    
Visibility 9 miles    
Events Rain    
Averages and records for this station are not official NWS values.
T = Trace of Precipitation, MM = Missing Value Source: NWS Daily Summary

Daily Weather History Graph

Daily Weather History Graph

Search for Another Location

Airport:

Trip Planner

Search our weather history database for the weather conditions in past years. The results will help you decide how hot, cold, wet, or windy it might be!

Date:

Astronomy

Jul. 31, 2013 Rise Set
Actual Time 6:00 AM AST 6:57 PM AST
Civil Twilight 5:37 AM AST 7:20 PM AST
Nautical Twilight 5:09 AM AST 7:47 PM AST
Astronomical Twilight 4:41 AM AST 8:15 PM AST
Moon 12:52 AM AST (7/31) 2:07 PM AST (7/31)
Length of Visible Light 13h 43m
Length of Day
12h 56m
Waning Crescent, 32% of the Moon is Illuminated
Jul 31
Waning Crescent
Aug 6
New
Aug 14
First Quarter
Aug 20
Full
Aug 28
Last Quarter

Hourly Weather History & Observations

Time (AST) Temp. Heat Index Dew Point Humidity Pressure Visibility Wind Dir Wind Speed Gust Speed Precip Events Conditions
12:32 AM 80.6 °F 85.4 °F 73.4 °F 79% 30.07 in 2.0 mi East 5.8 mph - N/A Rain Heavy Rain
12:38 AM 80.6 °F 86.2 °F 75.2 °F 84% 30.06 in 3.0 mi NE 4.6 mph - N/A Rain Rain
12:53 AM 80.1 °F 85.4 °F 75.9 °F 87% 30.06 in 10.0 mi Calm Calm - N/A   Overcast
1:53 AM 81.0 °F 87.3 °F 75.9 °F 85% 30.05 in 10.0 mi Calm Calm - N/A   Mostly Cloudy
2:53 AM 81.0 °F 86.2 °F 73.9 °F 79% 30.04 in 10.0 mi ENE 6.9 mph - N/A   Partly Cloudy
3:53 AM 81.0 °F 86.7 °F 75.0 °F 82% 30.04 in 10.0 mi East 4.6 mph - N/A   Scattered Clouds
6:53 AM 82.9 °F 90.2 °F 75.0 °F 77% 30.06 in 10.0 mi ENE 4.6 mph - N/A   Partly Cloudy
7:53 AM 84.9 °F 94.1 °F 75.9 °F 74% 30.06 in 10.0 mi East 8.1 mph - N/A   Clear
8:53 AM 86.0 °F 95.1 °F 75.0 °F 70% 30.07 in 10.0 mi NE 8.1 mph - N/A   Partly Cloudy
9:53 AM 87.1 °F 97.3 °F 75.9 °F 69% 30.08 in 10.0 mi NE 9.2 mph - N/A   Clear
10:53 AM 87.1 °F 99.8 °F 78.1 °F 74% 30.08 in 10.0 mi NE 11.5 mph 17.3 mph N/A   Scattered Clouds
11:53 AM 88.0 °F 100.2 °F 77.0 °F 70% 30.08 in 10.0 mi NE 13.8 mph - N/A   Clear
12:53 PM 88.0 °F 98.5 °F 75.9 °F 67% 30.06 in 10.0 mi NE 9.2 mph - N/A   Clear
1:53 PM 87.1 °F 98.8 °F 77.0 °F 72% 30.04 in 10.0 mi NE 10.4 mph - N/A   Clear
2:53 PM 87.1 °F 99.8 °F 78.1 °F 74% 30.02 in 10.0 mi ENE 9.2 mph - N/A   Clear
3:53 PM 87.1 °F 98.8 °F 77.0 °F 72% 30.01 in 10.0 mi ENE 6.9 mph - N/A   Clear
4:53 PM 86.0 °F 96.0 °F 75.9 °F 72% 30.01 in 10.0 mi ENE 6.9 mph - N/A   Mostly Cloudy
5:53 PM 84.0 °F 91.9 °F 75.0 °F 74% 30.01 in 10.0 mi East 4.6 mph - N/A   Partly Cloudy
6:53 PM 84.0 °F 91.9 °F 75.0 °F 74% 30.01 in 10.0 mi ESE 3.5 mph - N/A   Clear
7:53 PM 82.9 °F 90.2 °F 75.0 °F 77% 30.03 in 10.0 mi East 3.5 mph - N/A   Partly Cloudy
8:53 PM 82.9 °F 90.2 °F 75.0 °F 77% 30.04 in 10.0 mi Calm Calm - N/A   Partly Cloudy
9:53 PM 82.9 °F 90.8 °F 75.9 °F 79% 30.06 in 10.0 mi East 6.9 mph - N/A   Partly Cloudy
10:53 PM 82.9 °F 90.2 °F 75.0 °F 77% 30.06 in 10.0 mi East 3.5 mph - N/A   Partly Cloudy
11:53 PM 82.9 °F 90.8 °F 75.9 °F 79% 30.05 in 10.0 mi Calm Calm - N/A   Scattered Clouds